Location: Kawakawa
(35.3830°S, 174.0670°E)
Time: 02:41:42
(UTC+13:00)

Envisat - Pass Details

Date: 27 November 2019
Orbit: 764 x 766 km, 98.1° (Epoch: 11 December)

Event Time Altitude Azimuth Distance (km) Brightness Sun altitude
Rises 21:34:15 0° 189° (S) 3,268 7.1 -13.7°
Reaches altitude 10° 21:37:36 10° 212° (SSW) 2,333 6.7 -14.2°
Maximum altitude 21:40:18 15° 244° (WSW) 2,025 6.3 -14.6°
Drops below altitude 10° 21:42:59 10° 276° (W) 2,318 6.1 -15.0°
Sets 21:46:19 0° 299° (WNW) 3,234 6.5 -15.5°
